RYR6NV LIME-LKPR

Flight info

Callsign RYR6NV
Flight time N/A
Altitude 34000
Route OSKOR DCT NESTI DCT MALUG/N0458F330 DCT BUDEX/N0456F340 DCT APRAQ
Aircraft B738/M-SDE2E3FGHIRWXY/LB1

Departure

Time 2026-04-27 17:31
Airport Il Caravaggio International Airport (LIME)

Arrival

Time N/A
Airport Václav Havel Airport Prague (LKPR)
Time Latitude Longitude Altitude Speed Heading
2026-04-27 16:48 45.66551 9.70646 778 ft 0 kts 194°
2026-04-27 17:21 45.66558 9.70649 778 ft 2 kts 191°
2026-04-27 17:21 45.66574 9.70653 777 ft 2 kts 188°
2026-04-27 17:21 45.66591 9.70656 777 ft 2 kts 182°
2026-04-27 17:22 45.66607 9.70655 777 ft 2 kts 166°
2026-04-27 17:22 45.66622 9.70645 777 ft 2 kts 128°
2026-04-27 17:22 45.66628 9.70629 777 ft 1 kts 104°
2026-04-27 17:22 45.66628 9.70627 777 ft 0 kts 103°
2026-04-27 17:26 45.66624 9.70650 777 ft 6 kts 105°
2026-04-27 17:26 45.66608 9.70734 776 ft 11 kts 105°
2026-04-27 17:27 45.66586 9.70851 775 ft 13 kts 105°
2026-04-27 17:27 45.66563 9.70979 774 ft 14 kts 105°
2026-04-27 17:27 45.66535 9.71113 773 ft 14 kts 111°
2026-04-27 17:27 45.66498 9.71244 772 ft 15 kts 105°
2026-04-27 17:28 45.66469 9.71404 771 ft 18 kts 105°
2026-04-27 17:28 45.66440 9.71576 769 ft 17 kts 94°
2026-04-27 17:28 45.66467 9.71901 765 ft 16 kts 104°
2026-04-27 17:29 45.66439 9.72052 764 ft 15 kts 104°
2026-04-27 17:29 45.66414 9.72197 763 ft 15 kts 104°
2026-04-27 17:29 45.66392 9.72315 762 ft 7 kts 104°
2026-04-27 17:29 45.66387 9.72340 762 ft 2 kts 105°
2026-04-27 17:30 45.66382 9.72367 762 ft 4 kts 105°
2026-04-27 17:30 45.66452 9.72455 759 ft 15 kts 309°
2026-04-27 17:30 45.66483 9.72318 763 ft 16 kts 285°
2026-04-27 17:31 45.66567 9.71860 767 ft 88 kts 284°
2026-04-27 17:31 45.66791 9.70650 778 ft 160 kts 283°
2026-04-27 17:31 45.67095 9.68979 1338 ft 183 kts 283°
2026-04-27 17:31 45.67273 9.67093 2102 ft 200 kts 262°
2026-04-27 17:32 45.66738 9.65276 2837 ft 207 kts 224°
2026-04-27 17:32 45.64479 9.62697 4295 ft 212 kts 221°
2026-04-27 17:32 45.63355 9.61206 4811 ft 227 kts 223°
2026-04-27 17:33 45.62227 9.59637 5574 ft 229 kts 224°
2026-04-27 17:33 45.61052 9.58086 6428 ft 235 kts 213°
2026-04-27 17:33 45.59421 9.57375 6670 ft 263 kts 177°
2026-04-27 17:33 45.57673 9.58259 7168 ft 277 kts 142°
2026-04-27 17:34 45.56427 9.60367 7910 ft 282 kts 116°
2026-04-27 17:34 45.55949 9.63067 8713 ft 285 kts 89°
2026-04-27 17:34 45.56351 9.65829 9525 ft 287 kts 69°
2026-04-27 17:34 45.57143 9.68467 10218 ft 291 kts 64°
2026-04-27 17:35 45.58047 9.71146 10569 ft 312 kts 63°
2026-04-27 17:35 45.59011 9.73972 10757 ft 335 kts 63°
2026-04-27 17:35 45.60033 9.77027 10930 ft 358 kts 64°
2026-04-27 17:35 45.61107 9.80313 11340 ft 371 kts 64°
2026-04-27 17:36 45.61451 9.81382 11532 ft 373 kts 65°
2026-04-27 17:36 45.62023 9.83170 11885 ft 375 kts 65°
2026-04-27 17:36 45.62374 9.84274 12126 ft 376 kts 65°
2026-04-27 17:36 45.62514 9.84717 12230 ft 376 kts 65°
2026-04-27 17:37 45.63541 9.87981 12930 ft 379 kts 65°
2026-04-27 17:37 45.64620 9.91432 13615 ft 383 kts 65°
2026-04-27 17:37 45.65616 9.94633 14183 ft 388 kts 65°
2026-04-27 17:37 45.66643 9.97941 14748 ft 392 kts 65°
2026-04-27 17:38 45.67745 10.01502 15351 ft 396 kts 65°
2026-04-27 17:38 45.68865 10.05125 15950 ft 400 kts 64°
2026-04-27 17:38 45.69994 10.08778 16534 ft 404 kts 65°
2026-04-27 17:38 45.71134 10.12476 17124 ft 408 kts 65°
2026-04-27 17:39 45.72295 10.16193 17722 ft 412 kts 63°
2026-04-27 17:39 45.73536 10.19908 18301 ft 415 kts 62°
2026-04-27 17:39 45.74768 10.23664 18801 ft 419 kts 64°
2026-04-27 17:39 45.75962 10.27500 19297 ft 423 kts 65°
2026-04-27 17:40 45.77121 10.31394 19802 ft 427 kts 65°
2026-04-27 17:40 45.78265 10.35332 20327 ft 429 kts 66°
2026-04-27 17:40 45.79410 10.39295 20855 ft 432 kts 66°
2026-04-27 17:40 45.80604 10.43257 21324 ft 434 kts 62°
2026-04-27 17:41 45.82094 10.47034 21754 ft 437 kts 57°
2026-04-27 17:41 45.83704 10.50748 22208 ft 439 kts 56°
2026-04-27 17:41 45.85344 10.54454 22628 ft 442 kts 56°
2026-04-27 17:41 45.87001 10.58194 23007 ft 446 kts 56°
2026-04-27 17:42 45.88660 10.61972 23469 ft 449 kts 56°
2026-04-27 17:42 45.90296 10.65734 23883 ft 451 kts 56°
2026-04-27 17:42 45.91972 10.69619 24231 ft 454 kts 56°
2026-04-27 17:42 45.93632 10.73489 24573 ft 456 kts 56°
2026-04-27 17:43 45.95295 10.77381 24943 ft 458 kts 56°
2026-04-27 17:43 45.96962 10.81292 25278 ft 460 kts 56°
2026-04-27 17:43 45.98642 10.85241 25623 ft 463 kts 56°
2026-04-27 17:43 46.00325 10.89202 25928 ft 466 kts 56°
2026-04-27 17:44 46.02016 10.93186 26302 ft 466 kts 56°
2026-04-27 17:44 46.03686 10.97124 26617 ft 469 kts 56°
2026-04-27 17:44 46.05388 11.01143 26954 ft 471 kts 56°
2026-04-27 17:44 46.07096 11.05183 27275 ft 474 kts 56°
2026-04-27 17:45 46.08812 11.09247 27591 ft 476 kts 56°
2026-04-27 17:45 46.10536 11.13334 27894 ft 478 kts 56°
2026-04-27 17:45 46.12264 11.17441 28198 ft 480 kts 56°
2026-04-27 17:45 46.13995 11.21557 28510 ft 482 kts 56°
2026-04-27 17:46 46.15729 11.25690 28908 ft 481 kts 56°
2026-04-27 17:46 46.17457 11.29815 29383 ft 479 kts 56°
2026-04-27 17:46 46.19174 11.33919 29869 ft 477 kts 56°
2026-04-27 17:46 46.20886 11.38017 30274 ft 476 kts 56°
2026-04-27 17:47 46.22594 11.42111 30583 ft 476 kts 56°
2026-04-27 17:47 46.23725 11.44825 30703 ft 476 kts 56°
2026-04-27 17:47 46.26003 11.50299 31181 ft 475 kts 56°
2026-04-27 17:47 46.27700 11.54383 31541 ft 474 kts 56°
2026-04-27 17:48 46.29394 11.58467 31867 ft 473 kts 56°
2026-04-27 17:48 46.31084 11.62545 32192 ft 473 kts 56°
2026-04-27 17:48 46.32770 11.66623 32518 ft 472 kts 56°
2026-04-27 17:48 46.34453 11.70697 32824 ft 471 kts 56°
2026-04-27 17:49 46.36131 11.74768 33145 ft 471 kts 56°
2026-04-27 17:49 46.37788 11.78791 33474 ft 470 kts 56°
2026-04-27 17:49 46.39457 11.82852 33811 ft 469 kts 56°
2026-04-27 17:49 46.41114 11.86887 34094 ft 469 kts 56°
2026-04-27 17:50 46.42786 11.90963 34078 ft 473 kts 56°
2026-04-27 17:50 46.47787 12.03202 34105 ft 467 kts 56°
2026-04-27 17:51 46.51088 12.11308 34115 ft 466 kts 56°
2026-04-27 17:51 46.54374 12.19401 34119 ft 465 kts 56°
2026-04-27 17:52 46.57097 12.26125 34120 ft 464 kts 56°
2026-04-27 17:52 46.60367 12.34223 34134 ft 465 kts 56°
2026-04-27 17:53 46.63636 12.42342 34120 ft 465 kts 56°
2026-04-27 17:53 46.66899 12.50467 34123 ft 466 kts 56°
2026-04-27 17:54 46.70578 12.58159 34122 ft 460 kts 41°
2026-04-27 17:54 46.75614 12.63676 34117 ft 450 kts 23°
2026-04-27 17:55 46.81222 12.67773 34129 ft 451 kts 22°
2026-04-27 17:55 46.86865 12.71852 34113 ft 453 kts 22°
2026-04-27 17:56 46.92503 12.75999 34098 ft 454 kts 22°
2026-04-27 17:56 46.98126 12.80186 34102 ft 452 kts 23°
2026-04-27 17:57 47.03714 12.84371 34111 ft 451 kts 22°
2026-04-27 17:57 47.09269 12.88537 34136 ft 450 kts 22°
2026-04-27 17:58 47.14852 12.92733 34117 ft 451 kts 22°
2026-04-27 17:58 47.20446 12.96945 34118 ft 452 kts 22°
2026-04-27 17:59 47.26038 13.01169 34135 ft 451 kts 22°
2026-04-27 17:59 47.31634 13.05403 34128 ft 452 kts 22°
2026-04-27 18:00 47.37205 13.09630 34125 ft 450 kts 22°
2026-04-27 18:00 47.42764 13.13858 34132 ft 450 kts 22°
2026-04-27 18:01 47.48267 13.18053 34126 ft 450 kts 22°
2026-04-27 18:01 47.53797 13.22278 34134 ft 450 kts 22°
2026-04-27 18:02 47.59367 13.26541 34108 ft 451 kts 22°
2026-04-27 18:02 47.64926 13.30810 34143 ft 450 kts 22°
2026-04-27 18:03 47.70487 13.35093 34126 ft 447 kts 22°
2026-04-27 18:03 47.76011 13.39357 34151 ft 448 kts 22°
2026-04-27 18:04 47.81557 13.43642 34131 ft 450 kts 22°
2026-04-27 18:04 47.87094 13.47933 34130 ft 451 kts 22°
2026-04-27 18:05 47.92656 13.52256 34129 ft 452 kts 22°
2026-04-27 18:05 47.98237 13.56605 34134 ft 453 kts 22°
2026-04-27 18:06 48.03824 13.60968 34129 ft 453 kts 22°
2026-04-27 18:06 48.09403 13.65336 34129 ft 453 kts 22°
2026-04-27 18:07 48.15022 13.69747 34128 ft 453 kts 22°
2026-04-27 18:07 48.20557 13.74102 34134 ft 452 kts 22°
2026-04-27 18:08 48.26122 13.78491 34128 ft 452 kts 22°
2026-04-27 18:08 48.31696 13.82898 34132 ft 451 kts 22°
2026-04-27 18:09 48.37249 13.87300 34136 ft 451 kts 22°
2026-04-27 18:09 48.42797 13.91708 34135 ft 451 kts 22°
2026-04-27 18:10 48.48349 13.96131 34138 ft 451 kts 22°
2026-04-27 18:10 48.53898 14.00562 34140 ft 451 kts 22°
2026-04-27 18:11 48.59449 14.05006 34152 ft 451 kts 22°
2026-04-27 18:11 48.65001 14.09462 34151 ft 452 kts 22°
2026-04-27 18:12 48.70514 14.13898 34152 ft 452 kts 22°
2026-04-27 18:12 48.76104 14.18407 34160 ft 453 kts 22°
2026-04-27 18:13 48.81660 14.22902 34159 ft 453 kts 22°
2026-04-27 18:13 48.87185 14.27381 34168 ft 453 kts 22°
2026-04-27 18:14 48.92822 14.31578 34156 ft 445 kts 11°
2026-04-27 18:14 48.95818 14.32496 34179 ft 435 kts 359°
2026-04-27 18:14 48.98817 14.32519 34172 ft 427 kts 348°
2026-04-27 18:15 49.01727 14.31731 34036 ft 426 kts 344°
2026-04-27 18:15 49.04650 14.30804 33406 ft 429 kts 343°
2026-04-27 18:15 49.07569 14.29865 32729 ft 428 kts 343°
2026-04-27 18:15 49.10481 14.28938 32008 ft 428 kts 344°
2026-04-27 18:16 49.13407 14.28021 31149 ft 432 kts 344°
2026-04-27 18:16 49.16358 14.27110 30414 ft 433 kts 344°
2026-04-27 18:16 49.19312 14.26207 29561 ft 434 kts 345°
2026-04-27 18:16 49.22274 14.25306 28887 ft 431 kts 345°
2026-04-27 18:17 49.25200 14.24419 28311 ft 426 kts 345°
2026-04-27 18:17 49.28087 14.23544 27752 ft 421 kts 345°
2026-04-27 18:17 49.30941 14.22676 27197 ft 416 kts 345°
2026-04-27 18:17 49.33777 14.21810 26637 ft 413 kts 345°
2026-04-27 18:18 49.36578 14.20954 26077 ft 409 kts 345°
2026-04-27 18:18 49.39353 14.20103 25540 ft 406 kts 345°
2026-04-27 18:18 49.42115 14.19256 25002 ft 403 kts 345°
2026-04-27 18:18 49.44854 14.18415 24460 ft 400 kts 345°
2026-04-27 18:19 49.47573 14.17579 23931 ft 398 kts 345°
2026-04-27 18:19 49.50283 14.16744 23313 ft 396 kts 345°
2026-04-27 18:19 49.52973 14.15915 22722 ft 393 kts 345°
2026-04-27 18:19 49.55641 14.15093 22183 ft 389 kts 345°
2026-04-27 18:20 49.58250 14.14288 21644 ft 386 kts 345°
2026-04-27 18:20 49.60909 14.13467 21097 ft 383 kts 345°
2026-04-27 18:20 49.63477 14.12682 20582 ft 381 kts 347°
2026-04-27 18:20 49.66133 14.12541 20028 ft 386 kts
2026-04-27 18:21 49.68769 14.13321 19506 ft 386 kts
2026-04-27 18:21 49.71392 14.14227 18955 ft 386 kts 11°
2026-04-27 18:21 49.73881 14.15941 18010 ft 404 kts 34°
2026-04-27 18:21 49.75840 14.19080 17339 ft 410 kts 53°
2026-04-27 18:22 49.77110 14.23013 16831 ft 409 kts 70°
2026-04-27 18:22 49.77652 14.27299 16336 ft 407 kts 88°
2026-04-27 18:22 49.77442 14.31650 15837 ft 404 kts 96°
2026-04-27 18:22 49.77066 14.35944 15304 ft 401 kts 97°
2026-04-27 18:23 49.76666 14.40204 14784 ft 398 kts 97°
2026-04-27 18:23 49.76273 14.44432 14285 ft 395 kts 97°
2026-04-27 18:23 49.75898 14.48625 13783 ft 392 kts 96°
2026-04-27 18:23 49.75537 14.52769 13403 ft 384 kts 96°
2026-04-27 18:24 49.75193 14.56790 13297 ft 370 kts 96°
2026-04-27 18:24 49.74863 14.60665 13201 ft 357 kts 96°
2026-04-27 18:24 49.74545 14.64404 13117 ft 345 kts 96°
2026-04-27 18:24 49.74236 14.68017 13029 ft 333 kts 96°
2026-04-27 18:25 49.73936 14.71506 12947 ft 322 kts 96°
2026-04-27 18:25 49.73643 14.74887 12879 ft 312 kts 96°
2026-04-27 18:25 49.73622 14.78152 12706 ft 300 kts 75°
2026-04-27 18:25 49.74413 14.81063 12434 ft 291 kts 52°
2026-04-27 18:26 49.75778 14.83314 12110 ft 285 kts 36°
2026-04-27 18:26 49.77423 14.84949 11770 ft 280 kts 16°
2026-04-27 18:26 49.79313 14.85304 11441 ft 273 kts 350°
2026-04-27 18:26 49.81087 14.84407 11150 ft 268 kts 329°
2026-04-27 18:27 49.82475 14.82528 10822 ft 266 kts 309°
2026-04-27 18:27 49.83615 14.80274 10524 ft 266 kts 307°
2026-04-27 18:27 49.84728 14.77990 10239 ft 265 kts 307°
2026-04-27 18:27 49.85835 14.75713 9939 ft 264 kts 307°
2026-04-27 18:28 49.86928 14.73470 9626 ft 264 kts 307°
2026-04-27 18:28 49.88036 14.71205 9309 ft 263 kts 307°
2026-04-27 18:28 49.89142 14.68950 9024 ft 261 kts 308°
2026-04-27 18:28 49.90230 14.66734 8858 ft 255 kts 308°
2026-04-27 18:29 49.91291 14.64573 8757 ft 246 kts 308°
2026-04-27 18:29 49.92309 14.62502 8664 ft 238 kts 308°
2026-04-27 18:29 49.93178 14.60734 8533 ft 232 kts 308°
2026-04-27 18:29 49.94148 14.58759 8333 ft 228 kts 308°
2026-04-27 18:30 49.95098 14.56824 8075 ft 228 kts 308°
2026-04-27 18:30 49.96061 14.54863 7798 ft 228 kts 308°
2026-04-27 18:30 49.97032 14.52883 7356 ft 236 kts 308°
2026-04-27 18:30 49.98065 14.50777 6579 ft 257 kts 308°
2026-04-27 18:31 49.99199 14.48457 5499 ft 280 kts 308°
2026-04-27 18:31 50.00373 14.46048 5133 ft 273 kts 308°
2026-04-27 18:31 50.01455 14.43820 5028 ft 260 kts 308°
2026-04-27 18:31 50.02492 14.41655 4947 ft 251 kts 307°
2026-04-27 18:32 50.03501 14.39485 4753 ft 248 kts 307°
2026-04-27 18:32 50.04524 14.37284 4269 ft 262 kts 307°
2026-04-27 18:32 50.05593 14.34984 4058 ft 261 kts 307°
2026-04-27 18:32 50.06635 14.32736 4026 ft 266 kts 307°
2026-04-27 18:33 50.07705 14.30430 3999 ft 265 kts 307°
2026-04-27 18:33 50.08767 14.28143 3985 ft 262 kts 307°
2026-04-27 18:33 50.09830 14.25851 3983 ft 261 kts 307°
2026-04-27 18:33 50.10910 14.23569 3996 ft 263 kts 308°
2026-04-27 18:34 50.11971 14.21348 3997 ft 263 kts 308°
2026-04-27 18:34 50.13044 14.19108 3989 ft 263 kts 308°
2026-04-27 18:34 50.13905 14.16614 3982 ft 264 kts 285°
2026-04-27 18:34 50.13931 14.13776 4000 ft 266 kts 256°
2026-04-27 18:35 50.13081 14.11223 4006 ft 268 kts 227°
2026-04-27 18:35 50.11677 14.09297 4003 ft 270 kts 218°
2026-04-27 18:35 50.10062 14.07800 3980 ft 271 kts 197°
2026-04-27 18:35 50.08312 14.07557 3999 ft 269 kts 170°
2026-04-27 18:36 50.06817 14.08405 3999 ft 267 kts 146°